Flag for Germany Weather past 2 weeks in Nürtingen, Baden-Württemberg, Germany

Now
37 °F

Sprinkles. Passing clouds.


Feels Like: 33 °F
Forecast: 33 / 46 °F
Wind: 6 mph from Southwest

Location: Stuttgart-Echterdingen

Current Time: Dec 21, 2014 at 6:03:16 AM

Latest Report: Dec 21, 2014 at 5:20 AM


Visibility: N/A

Pressure: 30.45 "Hg

Humidity: 93%

Dew point: 36 °F

Location of NürtingenLocation

Historic Weather in Nürtingen — Graph

°F

Nürtingen temperature yesterday

Maximum temperature yesterday: 46 °F (at 12:20 AM)
Minimum temperature yesterday: 37 °F (at 5:50 AM)
Average temperature yesterday: 41 °F

Past Weeks' High & Low Weather Summary

 TemperatureHumidityPressure
High54 °F (Dec 13, 3:20 PM)100% (Dec 6, 4:20 AM)30.45 "Hg (Dec 6, 4:20 AM)
Low28 °F (Dec 10, 3:20 AM)58% (Dec 12, 12:50 PM)29.74 "Hg (Dec 12, 4:50 PM)
Average42 °F85%30.06 "Hg
* Reported Dec 6 4:20 AM — Dec 21 4:50 AM, Nürtingen, Weather by CustomWeather, © 2014

Note: Actual official high and low records may vary slightly from our data, if they occured in-between our weather recording intervals... More about our weather records

Advertising

Nürtingen weather history for previous 24 hours

 ConditionsComfort  
Time TempWeatherWind HumidityBarometerVisibility
4:50 AM
Dec 21
37 °FPassing clouds.5 mph93%30.45 "HgN/A
4:20 AM37 °FSprinkles. Passing clouds.13 mph87%30.45 "HgN/A
3:50 AM37 °FSprinkles. Partly cloudy.18 mph93%30.45 "HgN/A
3:20 AM39 °FSprinkles. Partly cloudy.8 mph87%30.45 "HgN/A
2:50 AM39 °FLight rain. Passing clouds.9 mph87%30.42 "HgN/A
2:20 AM39 °FLight rain. Passing clouds.10 mph87%30.42 "HgN/A
1:20 AM41 °FLight rain. Passing clouds.10 mph81%30.39 "HgN/A
12:50 AM41 °FLight rain. Partly cloudy.8 mph81%30.39 "HgN/A
12:20 AM41 °FPassing clouds.9 mph81%30.39 "HgN/A
11:50 PM
Dec 20
41 °FPartly cloudy.10 mph76%30.36 "HgN/A
11:20 PM41 °FPartly cloudy.8 mph81%30.36 "HgN/A
10:50 PM39 °FPassing clouds.10 mph87%30.36 "HgN/A
10:20 PM39 °FPartly cloudy.14 mph87%30.33 "HgN/A
9:50 PM39 °FSprinkles. Partly cloudy.14 mph87%30.33 "HgN/A
9:20 PM39 °FPassing clouds.12 mph87%30.33 "HgN/A
8:50 PM41 °FSprinkles. Passing clouds.10 mph81%30.33 "HgN/A
8:20 PM41 °FSprinkles. Passing clouds.14 mph81%30.30 "HgN/A
7:50 PM41 °FPassing clouds.14 mph81%30.30 "HgN/A
7:20 PM41 °FPassing clouds.14 mph76%30.27 "HgN/A
6:50 PM43 °FLight rain. Passing clouds.12 mph71%30.24 "HgN/A
6:20 PM43 °FPassing clouds.13 mph71%30.24 "HgN/A
5:50 PM43 °FPartly cloudy.17 mph66%30.21 "HgN/A
5:20 PM43 °FPartly cloudy.15 mph66%30.21 "HgN/A
4:50 PM43 °FPartly cloudy.16 mph66%30.21 "HgN/A
4:20 PM43 °FPartly sunny.13 mph66%30.21 "HgN/A
3:50 PM43 °FPartly sunny.14 mph66%30.21 "HgN/A
3:20 PM43 °FBroken clouds.13 mph66%30.21 "HgN/A
2:50 PM43 °FBroken clouds.13 mph66%30.21 "HgN/A
2:20 PM43 °FPartly sunny.13 mph66%30.21 "HgN/A
1:50 PM43 °FPartly sunny.10 mph66%30.24 "HgN/A
1:20 PM43 °FPartly sunny.9 mph66%30.24 "HgN/A
12:20 PM43 °FPartly sunny.9 mph66%30.24 "HgN/A
11:50 AM43 °FPartly sunny.9 mph66%30.27 "HgN/A
11:20 AM43 °FPartly sunny.9 mph66%30.27 "HgN/A
10:50 AM41 °FPartly sunny.7 mph76%30.30 "HgN/A
10:20 AM41 °FBroken clouds.7 mph76%30.30 "HgN/A
9:50 AM39 °FBroken clouds.6 mph81%30.30 "HgN/A
9:20 AM39 °FScattered clouds.6 mph75%30.30 "HgN/A
8:50 AM37 °FScattered clouds.6 mph81%30.27 "HgN/A
8:20 AM37 °FScattered clouds.6 mph81%30.27 "HgN/A
7:50 AM37 °FPassing clouds.3 mph81%30.27 "HgN/A
7:20 AM37 °FPassing clouds.3 mph81%30.27 "HgN/A
6:50 AM39 °FPassing clouds.13 mph75%30.27 "HgN/A
6:20 AM41 °FPassing clouds.14 mph76%30.27 "HgN/A
Weather by CustomWeather, © 2014

See weather overviewHow to use our weather pages